Location: Poughquag
(41.6090°N, 73.6820°W)
Time: 03:30:54
(UTC-04:00)

Vanguard 1 - Pass Details

Date: 03 June 2020
Orbit: 650 x 3833 km, 34.2° (Epoch: 06 July)

Event Time Altitude Azimuth Distance (km) Brightness Sun altitude
Rises 04:28:54 0° 217° (SW) 5,151 - -8.8°
Exits shadow 04:31:07 - 212° (SSW) 4,682 12.9 -8.5°
Reaches altitude 10° 04:31:59 10° 210° (SSW) 4,517 12.8 -8.4°
Maximum altitude 04:44:33 43° 144° (SE) 3,722 13.0 -6.6°
Drops below altitude 10° 05:04:02 10° 82° (E) 6,855 15.6 -3.6°
Sets 05:10:04 0° 77° (ENE) 7,977 16.3 -2.7°
